Погода в Верхнекалиновском

Россия / Астраханская область     46°01′12″N   48°07′03″E
темп.,
°C
ветер,
м/с
пор.,
м/с
влажн.,
%
обл.,
%
осадки,
мм/ч
давл.,
гПа
погр.,
м
19 сентября, вс
вс1901:00+13вюв35735 0.0 101989
04:00+12в456830 0.0 102091
07:00+13всв4863100 0.0 1020164
10:00+19вюв7843100 0.0 10201244
13:00+21вюв8838100 0.0 10191310
16:00+20вюв8839100 0.0 10181118
19:00+16в6105699 0.0 1018462
22:00+15в5116533 0.0 1018310
20 сентября, пн
пн2001:00+14в4117169 0.0 1016272
04:00+15всв411785 0.0 1015218
07:00+15в4108159 0.0 1015196
10:00+23юв6746100 0.0 1014721
13:00+25юв6654100 0.5 1014936
16:00+22юв5667100 0.6 1014783
19:00+19юв3483100 0.0 101458
22:00+18юв3493100 0.0 101466
21 сентября, вт
вт2101:00+18ю229396 0.0 101432
04:00+18з119099 0.0 101511
07:00+18в2290100 0.0 101538
10:00+23ссв445899 0.0 1016565
13:00+26св3341100 0.0 10151864
16:00+26в4443100 0.1 10141571
19:00+21юв3650100 0.0 1014117
22:00+19вюв3660100 0.0 1013133
22 сентября, ср
ср2201:00+17юв3360100 0.0 101147
04:00+17з1160100 0.0 101111
07:00+15ссз71073100 0.0 1012359
10:00+19ссв5555100 0.0 1012551
13:00+22с5546100 0.0 10121142
16:00+22ссз7750100 0.0 10111095
19:00+18с5769100 0.0 1012420
22:00+16с4687100 1.2 1012249
23 сентября, чт
чт2301:00+16с3785100 0.1 1011338
04:00+16с4984100 0.1 1010416
07:00+16с61177100 0.0 1010443
10:00+18с71064100 0.0 1009675
13:00+20ссз8105334 0.0 1008878
16:00+23с78333 0.0 10071153
19:00+18с47395 0.0 1007124
22:00+15ссв3552100 0.0 100794